Location: Recife
(8.0585°S, 34.8848°W)
Time: 20:37:46
(UTC-03:00)

Altair - Pass Details

Date: 20 April 2026
Orbit: 1501 x 1682 km, 47.2° (Epoch: 17 May)

Event Time Altitude Azimuth Distance (km) Brightness Sun altitude
Rises 22:54:28 0° 267° (W) 4,634 - -83.0°
Reaches altitude 10° 23:00:11 10° 239° (WSW) 3,653 - -84.2°
Maximum altitude 23:03:34 12° 217° (SW) 3,473 - -84.8°
Drops below altitude 10° 23:06:59 10° 195° (SSW) 3,671 - -85.3°
Sets 23:12:51 0° 166° (SSE) 4,682 - -86.0°
